CZ-3C DEB, 40834

Orbit data source: Space-Track

CZ-3C DEB, 40834 is space debris in HEO originally from a launch on Sun, 31 Oct 2010 UTC launched from the Xichang Space Center, China (XSC). Debris objects in space refer to the collection of defunct objects orbiting the Earth. Examples of debris include non-operational satellites, rocket bodies, and fragments generated from explosions, collisions, or faulty payload assembly.

Loading next visibility...
Identifier
40834, 2010-057BB
Orbit
HEO
Country
Flag of CNCN / PRC
Related business
Manufacturer
CALT
Mission
Spacecraft
Bus & Motor
Unknown
Mass
Unknown
Launch date (UTC)
2010-10-31 (15 years ago)
Launch vehicle
Unknown
Launch site
Xichang Space Center, China (XSC)
Object type
Payload
Rocket body
Debris
Shape & HBR
Unknown shape, 0.3 m
Radar Cross Section
Small (<0.1 m²)

Expand to show TLE details & history
Last TLE update: 2 days ago

TLE from 2 days ago
0 CZ-3C DEB
1 40834U 10057BB  26060.46627240 -.00000150  00000-0  19935-2 0  9993
2 40834  19.8197 176.3974 7166496  22.5012 357.1343  2.19667406 88142
Epoch: 2026-03-01T11:11Z
TLE epoch observation values (Epoch: 2026-03-01T11:11:25.935Z)
Latitude
0.00005°
Longitude
-150.71242°
Altitude
931.294 km
Speed
9.649 km/s
True Right ascension
11h 45m 40s
True Declination
0° 00' 00"
Sunlit
Object was in full shadow at epoch
Visualization orbit readout
Latitude
Unknown
Longitude
Unknown
Altitude
Unknown
Speed
Unknown
Apparent Right ascension
Unknown
Apparent Declination
Unknown
Sunlit
N/A
Visualization observer readout
Local Sidereal Time
16:47:32
Azimuth
Unknown
Elevation
Unknown
Doppler factor
Unknown
Orbital elements
Apogee altitude
36,540.708 km
Perigee altitude
706.053 km
Semi-major axis
25,001.517 km
Eccentricity
0.71665
Inclination
19.8197°
RAAN
176.3974°
Arg. of periapsis
22.5012°
True anomaly
335.72797°
Mean anomaly
357.1343°
Eccentric anomaly
350.01405°
Mean motion
0.54903 °/min
Orbital period
655.71 mins
BSTAR
0.0019935
Loading maneuver chart data...
Computing Atmospheric mass density...
Loading historical data...
Loading historical data...
Loading historical data...
Loading historical data...
Loading historical data...
Loading historical data...
Loading historical data...

Documentation

Showing up to 5 results
|